Time,TemperatureF,DewpointF,PressureIn,WindDirection,WindDirectionDegrees,WindSpeedMPH,WindSpeedGustMPH,Humidity,HourlyPrecipIn,Conditions,Clouds,dailyrainin,SoftwareType,DateUTC
2013-05-08 00:00:00,49.6,48.5,30.08,NE,38,1.0,8.0,96,0.00,,,0.00,Wunderground v.1.15,2013-05-08 07:00:00,
2013-05-08 00:05:00,49.6,48.5,30.08,NE,37,1.0,8.0,96,0.00,,,0.00,Wunderground v.1.15,2013-05-08 07:05:00,
2013-05-08 00:10:00,49.5,48.4,30.08,NNE,23,1.0,1.0,96,0.00,,,0.00,Wunderground v.1.15,2013-05-08 07:10:00,
2013-05-08 00:20:00,49.5,48.4,30.08,NE,41,2.0,8.0,96,0.00,,,0.00,Wunderground v.1.15,2013-05-08 07:20:00,
2013-05-08 00:25:00,49.5,48.7,30.08,NNE,32,2.0,8.0,97,0.00,,,0.00,Wunderground v.1.15,2013-05-08 07:25:00,
2013-05-08 00:30:00,49.5,48.7,30.09,NNE,32,1.0,1.0,97,0.00,,,0.00,Wunderground v.1.15,2013-05-08 07:30:00,
2013-05-08 00:40:00,49.5,48.7,30.09,NNE,32,0.0,8.0,97,0.00,,,0.00,Wunderground v.1.15,2013-05-08 07:40:00,
2013-05-08 00:45:00,49.5,48.7,30.08,NNE,32,0.0,8.0,97,0.00,,,0.00,Wunderground v.1.15,2013-05-08 07:45:00,
2013-05-08 00:50:00,49.6,48.8,30.09,NNE,32,1.0,1.0,97,0.00,,,0.00,Wunderground v.1.15,2013-05-08 07:50:00,
2013-05-08 00:55:00,49.6,48.8,30.09,NNE,32,0.0,8.0,97,0.00,,,0.00,Wunderground v.1.15,2013-05-08 07:55:00,
2013-05-08 01:05:00,49.5,48.7,30.09,NE,37,1.0,8.0,97,0.00,,,0.00,Wunderground v.1.15,2013-05-08 08:05:00,
2013-05-08 01:10:00,49.5,48.7,30.08,NE,37,1.0,1.0,97,0.00,,,0.00,Wunderground v.1.15,2013-05-08 08:10:00,
2013-05-08 01:15:00,49.5,48.7,30.08,NE,39,1.0,2.0,97,0.00,,,0.00,Wunderground v.1.15,2013-05-08 08:15:00,
2013-05-08 01:25:00,49.5,48.7,30.08,NE,42,1.0,8.0,97,0.00,,,0.00,Wunderground v.1.15,2013-05-08 08:25:00,
2013-05-08 01:30:00,49.5,48.7,30.08,NNE,29,1.0,8.0,97,0.00,,,0.00,Wunderground v.1.15,2013-05-08 08:30:00,
2013-05-08 01:35:00,49.5,48.7,30.08,NE,45,1.0,8.0,97,0.00,,,0.00,Wunderground v.1.15,2013-05-08 08:35:00,
2013-05-08 01:45:00,49.4,48.6,30.08,NE,46,2.0,8.0,97,0.00,,,0.00,Wunderground v.1.15,2013-05-08 08:45:00,
2013-05-08 01:50:00,49.4,48.6,30.08,NE,46,2.0,2.0,97,0.00,,,0.00,Wunderground v.1.15,2013-05-08 08:50:00,
2013-05-08 01:55:00,49.4,48.6,30.08,NE,40,1.0,8.0,97,0.00,,,0.00,Wunderground v.1.15,2013-05-08 08:55:00,
2013-05-08 02:00:00,49.4,48.6,30.08,NE,39,1.0,8.0,97,0.00,,,0.00,Wunderground v.1.15,2013-05-08 09:00:00,
2013-05-08 02:10:00,49.4,48.6,30.08,NE,52,1.0,1.0,97,0.00,,,0.00,Wunderground v.1.15,2013-05-08 09:10:00,
2013-05-08 02:15:00,49.4,48.6,30.08,NNE,26,1.0,8.0,97,0.00,,,0.00,Wunderground v.1.15,2013-05-08 09:15:00,
2013-05-08 02:20:00,49.4,48.6,30.08,NNE,32,1.0,1.0,97,0.00,,,0.00,Wunderground v.1.15,2013-05-08 09:20:00,
2013-05-08 02:30:00,49.3,48.5,30.08,NE,39,1.0,8.0,97,0.00,,,0.00,Wunderground v.1.15,2013-05-08 09:30:00,
2013-05-08 02:35:00,49.4,48.6,30.08,NE,43,1.0,8.0,97,0.00,,,0.00,Wunderground v.1.15,2013-05-08 09:35:00,
2013-05-08 02:40:00,49.3,48.5,30.08,NNE,32,1.0,8.0,97,0.00,,,0.00,Wunderground v.1.15,2013-05-08 09:40:00,
2013-05-08 02:50:00,49.3,48.5,30.08,NE,34,1.0,1.0,97,0.00,,,0.00,Wunderground v.1.15,2013-05-08 09:50:00,
2013-05-08 02:55:00,49.3,48.5,30.08,NE,34,0.0,8.0,97,0.00,,,0.00,Wunderground v.1.15,2013-05-08 09:55:00,
2013-05-08 03:00:00,49.3,48.5,30.08,NE,34,0.0,8.0,97,0.00,,,0.00,Wunderground v.1.15,2013-05-08 10:00:00,
2013-05-08 03:10:00,49.3,48.5,30.08,NE,34,0.0,8.0,97,0.00,,,0.00,Wunderground v.1.15,2013-05-08 10:10:00,
2013-05-08 03:15:00,49.3,48.5,30.09,NE,34,0.0,8.0,97,0.00,,,0.00,Wunderground v.1.15,2013-05-08 10:15:00,
2013-05-08 03:20:00,49.3,48.5,30.09,NE,34,0.0,8.0,97,0.00,,,0.00,Wunderground v.1.15,2013-05-08 10:20:00,
2013-05-08 03:25:00,49.3,48.5,30.09,NE,34,0.0,8.0,97,0.00,,,0.00,Wunderground v.1.15,2013-05-08 10:25:00,
2013-05-08 03:35:00,49.2,48.4,30.09,NE,34,0.0,8.0,97,0.00,,,0.00,Wunderground v.1.15,2013-05-08 10:35:00,
2013-05-08 03:40:00,49.2,48.4,30.09,NE,34,0.0,8.0,97,0.00,,,0.00,Wunderground v.1.15,2013-05-08 10:40:00,
2013-05-08 03:45:00,49.2,48.4,30.09,NE,34,0.0,8.0,97,0.00,,,0.00,Wunderground v.1.15,2013-05-08 10:45:00,
2013-05-08 03:50:00,49.2,48.4,30.09,NE,34,0.0,8.0,97,0.00,,,0.00,Wunderground v.1.15,2013-05-08 10:50:00,
2013-05-08 04:00:00,49.2,48.4,30.09,NE,34,0.0,8.0,97,0.00,,,0.00,Wunderground v.1.15,2013-05-08 11:00:00,
2013-05-08 04:05:00,49.2,48.4,30.09,NE,34,0.0,8.0,97,0.00,,,0.00,Wunderground v.1.15,2013-05-08 11:05:00,
2013-05-08 04:10:00,49.2,48.4,30.09,NE,34,0.0,8.0,97,0.00,,,0.00,Wunderground v.1.15,2013-05-08 11:10:00,
2013-05-08 04:20:00,49.2,48.4,30.09,NE,34,0.0,8.0,97,0.00,,,0.00,Wunderground v.1.15,2013-05-08 11:20:00,
2013-05-08 04:25:00,49.1,48.3,30.09,NE,34,0.0,8.0,97,0.00,,,0.00,Wunderground v.1.15,2013-05-08 11:25:00,
2013-05-08 04:30:00,49.1,48.3,30.09,NE,34,0.0,8.0,97,0.00,,,0.00,Wunderground v.1.15,2013-05-08 11:30:00,
2013-05-08 04:40:00,49.1,48.3,30.09,NNE,30,0.0,8.0,97,0.00,,,0.00,Wunderground v.1.15,2013-05-08 11:40:00,
2013-05-08 04:45:00,49.0,48.2,30.09,NNE,20,1.0,8.0,97,0.00,,,0.00,Wunderground v.1.15,2013-05-08 11:45:00,
2013-05-08 04:50:00,49.0,48.2,30.09,NNE,32,1.0,8.0,97,0.00,,,0.00,Wunderground v.1.15,2013-05-08 11:50:00,
2013-05-08 05:00:00,49.0,48.2,30.09,NNE,32,1.0,8.0,97,0.00,,,0.00,Wunderground v.1.15,2013-05-08 12:00:00,
2013-05-08 05:05:00,49.0,48.2,30.09,NNE,32,1.0,8.0,97,0.00,,,0.00,Wunderground v.1.15,2013-05-08 12:05:00,
2013-05-08 05:10:00,48.9,48.1,30.09,NNE,32,1.0,1.0,97,0.00,,,0.00,Wunderground v.1.15,2013-05-08 12:10:00,
2013-05-08 05:15:00,49.0,48.2,30.09,NNE,32,0.0,8.0,97,0.00,,,0.00,Wunderground v.1.15,2013-05-08 12:15:00,
2013-05-08 05:25:00,49.0,48.2,30.10,NNE,32,0.0,8.0,97,0.00,,,0.00,Wunderground v.1.15,2013-05-08 12:25:00,
2013-05-08 05:30:00,49.0,48.2,30.10,NNE,32,1.0,8.0,97,0.00,,,0.00,Wunderground v.1.15,2013-05-08 12:30:00,
2013-05-08 05:35:00,48.9,48.1,30.10,NNE,12,1.0,8.0,97,0.00,,,0.00,Wunderground v.1.15,2013-05-08 12:35:00,
2013-05-08 05:45:00,48.9,48.1,30.10,NNE,18,1.0,8.0,97,0.00,,,0.00,Wunderground v.1.15,2013-05-08 12:45:00,
2013-05-08 05:50:00,49.0,48.2,30.10,NNE,18,1.0,8.0,97,0.00,,,0.00,Wunderground v.1.15,2013-05-08 12:50:00,
2013-05-08 05:55:00,48.9,48.1,30.10,NNE,18,1.0,8.0,97,0.00,,,0.00,Wunderground v.1.15,2013-05-08 12:55:00,
2013-05-08 06:05:00,48.9,48.1,30.10,NNE,18,0.0,8.0,97,0.00,,,0.00,Wunderground v.1.15,2013-05-08 13:05:00,
2013-05-08 06:10:00,48.9,48.1,30.10,NNE,18,0.0,8.0,97,0.00,,,0.00,Wunderground v.1.15,2013-05-08 13:10:00,
2013-05-08 06:15:00,48.9,48.1,30.10,NNE,18,0.0,8.0,97,0.00,,,0.00,Wunderground v.1.15,2013-05-08 13:15:00,
2013-05-08 06:20:00,48.9,48.1,30.10,NNE,18,0.0,8.0,97,0.00,,,0.00,Wunderground v.1.15,2013-05-08 13:20:00,
2013-05-08 06:30:00,49.0,48.2,30.10,NNE,18,0.0,8.0,97,0.00,,,0.00,Wunderground v.1.15,2013-05-08 13:30:00,
2013-05-08 06:35:00,49.0,48.2,30.10,NNE,18,0.0,8.0,97,0.00,,,0.00,Wunderground v.1.15,2013-05-08 13:35:00,
2013-05-08 06:40:00,49.0,48.2,30.10,NE,39,1.0,1.0,97,0.00,,,0.00,Wunderground v.1.15,2013-05-08 13:40:00,
2013-05-08 06:50:00,49.0,48.2,30.10,NE,39,0.0,8.0,97,0.00,,,0.00,Wunderground v.1.15,2013-05-08 13:50:00,
2013-05-08 06:55:00,49.1,48.6,30.10,NE,39,0.0,8.0,98,0.00,,,0.00,Wunderground v.1.15,2013-05-08 13:55:00,
2013-05-08 07:00:00,49.2,48.7,30.11,NE,35,0.0,8.0,98,0.00,,,0.00,Wunderground v.1.15,2013-05-08 14:00:00,
2013-05-08 07:05:00,49.2,48.7,30.11,NE,34,1.0,8.0,98,0.00,,,0.00,Wunderground v.1.15,2013-05-08 14:05:00,
2013-05-08 07:15:00,49.3,48.8,30.11,NNE,30,1.0,8.0,98,0.00,,,0.00,Wunderground v.1.15,2013-05-08 14:15:00,
2013-05-08 07:25:00,49.3,48.8,30.12,NNE,31,2.0,8.0,98,0.00,,,0.00,Wunderground v.1.15,2013-05-08 14:25:00,
2013-05-08 07:30:00,49.4,48.9,30.12,NE,39,1.0,1.0,98,0.00,,,0.00,Wunderground v.1.15,2013-05-08 14:30:00,
2013-05-08 07:35:00,49.4,48.6,30.12,NNE,21,1.0,8.0,97,0.00,,,0.00,Wunderground v.1.15,2013-05-08 14:35:00,
2013-05-08 07:40:00,49.5,48.7,30.11,ENE,59,1.0,8.0,97,0.00,,,0.00,Wunderground v.1.15,2013-05-08 14:40:00,
2013-05-08 07:50:00,49.6,48.8,30.12,NE,37,1.0,1.0,97,0.00,,,0.00,Wunderground v.1.15,2013-05-08 14:50:00,
2013-05-08 07:55:00,49.6,48.8,30.12,NE,38,1.0,8.0,97,0.00,,,0.00,Wunderground v.1.15,2013-05-08 14:55:00,
2013-05-08 08:00:00,49.7,48.9,30.12,NE,38,1.0,1.0,97,0.00,,,0.00,Wunderground v.1.15,2013-05-08 15:00:00,
2013-05-08 08:10:00,49.7,48.9,30.12,NE,37,1.0,8.0,97,0.00,,,0.00,Wunderground v.1.15,2013-05-08 15:10:00,
2013-05-08 08:15:00,49.8,49.0,30.12,ENE,59,1.0,8.0,97,0.00,,,0.00,Wunderground v.1.15,2013-05-08 15:15:00,
2013-05-08 08:20:00,49.9,49.1,30.12,NE,52,1.0,1.0,97,0.00,,,0.00,Wunderground v.1.15,2013-05-08 15:20:00,
2013-05-08 08:25:00,50.0,49.2,30.12,NE,52,0.0,8.0,97,0.00,,,0.00,Wunderground v.1.15,2013-05-08 15:25:00,
2013-05-08 08:35:00,50.3,49.2,30.12,NE,52,1.0,8.0,96,0.00,,,0.00,Wunderground v.1.15,2013-05-08 15:35:00,
2013-05-08 08:45:00,50.7,49.6,30.13,NE,46,0.0,8.0,96,0.00,,,0.00,Wunderground v.1.15,2013-05-08 15:45:00,
2013-05-08 08:50:00,50.9,49.5,30.13,NNE,31,0.0,8.0,95,0.00,,,0.00,Wunderground v.1.15,2013-05-08 15:50:00,
2013-05-08 08:55:00,50.9,49.2,30.13,NE,39,1.0,8.0,94,0.00,,,0.00,Wunderground v.1.15,2013-05-08 15:55:00,
2013-05-08 09:05:00,51.0,49.6,30.13,NE,39,1.0,8.0,95,0.00,,,0.00,Wunderground v.1.15,2013-05-08 16:05:00,
2013-05-08 09:10:00,51.3,49.6,30.13,NE,38,1.0,8.0,94,0.00,,,0.00,Wunderground v.1.15,2013-05-08 16:10:00,
2013-05-08 09:15:00,51.4,49.4,30.13,NE,39,1.0,8.0,93,0.00,,,0.00,Wunderground v.1.15,2013-05-08 16:15:00,
2013-05-08 09:25:00,51.8,49.5,30.13,NNE,25,2.0,8.0,92,0.00,,,0.00,Wunderground v.1.15,2013-05-08 16:25:00,
2013-05-08 09:30:00,51.9,49.4,30.13,NNE,33,2.0,8.0,91,0.00,,,0.00,Wunderground v.1.15,2013-05-08 16:30:00,
2013-05-08 09:35:00,52.0,48.9,30.13,North,4,3.0,8.0,89,0.00,,,0.00,Wunderground v.1.15,2013-05-08 16:35:00,
2013-05-08 09:40:00,52.2,49.1,30.13,NNE,32,3.0,8.0,89,0.00,,,0.00,Wunderground v.1.15,2013-05-08 16:40:00,
2013-05-08 09:50:00,52.7,48.9,30.13,NE,41,3.0,3.0,87,0.00,,,0.00,Wunderground v.1.15,2013-05-08 16:50:00,
2013-05-08 09:55:00,52.9,49.1,30.13,NE,37,2.0,8.0,87,0.00,,,0.00,Wunderground v.1.15,2013-05-08 16:55:00,
2013-05-08 10:00:00,53.2,49.4,30.13,NE,51,1.0,8.0,87,0.00,,,0.00,Wunderground v.1.15,2013-05-08 17:00:00,
2013-05-08 10:05:00,53.5,49.1,30.13,NE,35,1.0,8.0,85,0.00,,,0.00,Wunderground v.1.15,2013-05-08 17:05:00,
2013-05-08 10:15:00,53.5,48.8,30.14,NE,50,2.0,8.0,84,0.00,,,0.00,Wunderground v.1.15,2013-05-08 17:15:00,
2013-05-08 10:20:00,53.7,49.0,30.14,NE,49,1.0,8.0,84,0.00,,,0.00,Wunderground v.1.15,2013-05-08 17:20:00,
2013-05-08 10:25:00,53.9,49.2,30.14,NNW,332,1.0,8.0,84,0.00,,,0.00,Wunderground v.1.15,2013-05-08 17:25:00,
2013-05-08 10:35:00,54.2,49.1,30.14,NNW,338,1.0,8.0,83,0.00,,,0.00,Wunderground v.1.15,2013-05-08 17:35:00,
2013-05-08 10:40:00,54.5,49.1,30.14,NE,46,1.0,8.0,82,0.00,,,0.00,Wunderground v.1.15,2013-05-08 17:40:00,
2013-05-08 10:45:00,54.6,49.5,30.14,NNE,33,1.0,8.0,83,0.00,,,0.00,Wunderground v.1.15,2013-05-08 17:45:00,
2013-05-08 10:55:00,54.6,49.2,30.14,NE,55,3.0,8.0,82,0.00,,,0.00,Wunderground v.1.15,2013-05-08 17:55:00,
2013-05-08 11:00:00,54.8,49.7,30.14,East,87,2.0,2.0,83,0.00,,,0.00,Wunderground v.1.15,2013-05-08 18:00:00,
2013-05-08 11:05:00,55.0,49.3,30.14,NNE,19,1.0,8.0,81,0.00,,,0.00,Wunderground v.1.15,2013-05-08 18:05:00,
2013-05-08 11:15:00,55.6,49.9,30.15,NNE,20,2.0,8.0,81,0.00,,,0.00,Wunderground v.1.15,2013-05-08 18:15:00,
2013-05-08 11:20:00,56.1,50.0,30.15,NE,36,2.0,8.0,80,0.00,,,0.00,Wunderground v.1.15,2013-05-08 18:20:00,
2013-05-08 11:25:00,56.1,49.3,30.15,NE,44,3.0,8.0,78,0.00,,,0.00,Wunderground v.1.15,2013-05-08 18:25:00,
2013-05-08 11:30:00,56.0,49.6,30.15,NNE,31,2.0,8.0,79,0.00,,,0.00,Wunderground v.1.15,2013-05-08 18:30:00,
2013-05-08 11:40:00,56.6,49.8,30.15,NNE,14,2.0,2.0,78,0.00,,,0.00,Wunderground v.1.15,2013-05-08 18:40:00,
2013-05-08 11:45:00,57.2,50.7,30.14,NE,51,1.0,8.0,79,0.00,,,0.00,Wunderground v.1.15,2013-05-08 18:45:00,
2013-05-08 11:50:00,57.3,50.1,30.14,NNE,26,2.0,2.0,77,0.00,,,0.00,Wunderground v.1.15,2013-05-08 18:50:00,
2013-05-08 12:00:00,57.1,50.6,30.14,NNE,31,3.0,4.0,79,0.00,,,0.00,Wunderground v.1.15,2013-05-08 19:00:00,
2013-05-08 12:10:00,57.3,50.1,30.14,NE,51,1.0,2.0,77,0.00,,,0.00,Wunderground v.1.15,2013-05-08 19:10:00,
2013-05-08 12:15:00,57.9,50.4,30.14,NNE,26,2.0,5.0,76,0.00,,,0.01,Wunderground v.1.15,2013-05-08 19:15:00,
2013-05-08 12:20:00,58.5,50.2,30.14,NNE,17,2.0,2.0,74,0.00,,,0.01,Wunderground v.1.15,2013-05-08 19:20:00,
2013-05-08 12:25:00,58.9,50.6,30.14,ENE,73,2.0,3.0,74,0.00,,,0.01,Wunderground v.1.15,2013-05-08 19:25:00,
2013-05-08 12:35:00,59.3,52.1,30.13,West,265,3.0,3.0,77,0.00,,,0.01,Wunderground v.1.15,2013-05-08 19:35:00,
2013-05-08 12:40:00,60.2,51.9,30.13,NW,314,3.0,3.0,74,0.00,,,0.01,Wunderground v.1.15,2013-05-08 19:40:00,
2013-05-08 12:45:00,60.7,51.6,30.13,WNW,293,3.0,3.0,72,0.00,,,0.01,Wunderground v.1.15,2013-05-08 19:45:00,
2013-05-08 12:55:00,61.4,51.5,30.13,NE,41,2.0,2.0,70,0.00,,,0.01,Wunderground v.1.15,2013-05-08 19:55:00,
2013-05-08 13:00:00,61.5,52.0,30.13,SSE,157,2.0,2.0,71,0.00,,,0.01,Wunderground v.1.15,2013-05-08 20:00:00,
2013-05-08 13:05:00,61.5,52.0,30.13,WNW,298,2.0,7.0,71,0.00,,,0.01,Wunderground v.1.15,2013-05-08 20:05:00,
2013-05-08 13:10:00,62.0,52.9,30.13,WSW,247,2.0,2.0,72,0.00,,,0.01,Wunderground v.1.15,2013-05-08 20:10:00,
2013-05-08 13:20:00,62.6,52.3,30.13,NE,53,2.0,2.0,69,0.00,,,0.01,Wunderground v.1.15,2013-05-08 20:20:00,
2013-05-08 13:25:00,62.6,52.3,30.12,NNE,21,2.0,4.0,69,0.00,,,0.01,Wunderground v.1.15,2013-05-08 20:25:00,
2013-05-08 13:30:00,62.6,51.9,30.12,NE,35,2.0,2.0,68,0.00,,,0.01,Wunderground v.1.15,2013-05-08 20:30:00,
2013-05-08 13:40:00,62.3,52.0,30.12,SW,217,1.0,1.0,69,0.00,,,0.01,Wunderground v.1.15,2013-05-08 20:40:00,
2013-05-08 13:45:00,62.3,52.4,30.12,North,4,1.0,2.0,70,0.00,,,0.01,Wunderground v.1.15,2013-05-08 20:45:00,
2013-05-08 13:50:00,62.7,52.4,30.12,ENE,60,1.0,7.0,69,0.00,,,0.01,Wunderground v.1.15,2013-05-08 20:50:00,
2013-05-08 13:55:00,63.1,53.2,30.12,WNW,301,1.0,7.0,70,0.00,,,0.01,Wunderground v.1.15,2013-05-08 20:55:00,
2013-05-08 14:05:00,64.3,53.5,30.12,NNE,29,1.0,7.0,68,0.00,,,0.01,Wunderground v.1.15,2013-05-08 21:05:00,
2013-05-08 14:10:00,64.7,53.5,30.12,NW,314,1.0,7.0,67,0.00,,,0.01,Wunderground v.1.15,2013-05-08 21:10:00,
2013-05-08 14:20:00,64.3,53.5,30.12,WNW,283,3.0,7.0,68,0.00,,,0.01,Wunderground v.1.15,2013-05-08 21:20:00,
2013-05-08 14:25:00,64.4,53.6,30.12,NW,307,3.0,7.0,68,0.00,,,0.01,Wunderground v.1.15,2013-05-08 21:25:00,
2013-05-08 14:30:00,64.9,53.7,30.12,WSW,256,3.0,7.0,67,0.00,,,0.01,Wunderground v.1.15,2013-05-08 21:30:00,
2013-05-08 14:35:00,65.4,53.7,30.12,West,275,3.0,7.0,66,0.00,,,0.01,Wunderground v.1.15,2013-05-08 21:35:00,
2013-05-08 14:45:00,65.6,54.3,30.12,West,268,3.0,3.0,67,0.00,,,0.01,Wunderground v.1.15,2013-05-08 21:45:00,
2013-05-08 14:50:00,65.7,53.2,30.12,NNW,327,3.0,3.0,64,0.00,,,0.01,Wunderground v.1.15,2013-05-08 21:50:00,
2013-05-08 14:55:00,65.3,53.6,30.12,SW,228,3.0,7.0,66,0.00,,,0.01,Wunderground v.1.15,2013-05-08 21:55:00,
2013-05-08 15:00:00,65.4,53.3,30.12,West,280,2.0,7.0,65,0.00,,,0.01,Wunderground v.1.15,2013-05-08 22:00:00,
2013-05-08 15:10:00,65.1,53.5,30.12,NW,318,2.0,7.0,66,0.00,,,0.01,Wunderground v.1.15,2013-05-08 22:10:00,
2013-05-08 15:15:00,65.4,53.3,30.11,NNE,27,3.0,7.0,65,0.00,,,0.01,Wunderground v.1.15,2013-05-08 22:15:00,
2013-05-08 15:20:00,65.2,53.1,30.11,NE,48,3.0,3.0,65,0.00,,,0.01,Wunderground v.1.15,2013-05-08 22:20:00,
2013-05-08 15:30:00,65.6,52.7,30.11,NE,41,3.0,7.0,63,0.00,,,0.01,Wunderground v.1.15,2013-05-08 22:30:00,
2013-05-08 15:35:00,66.0,53.0,30.11,NE,42,3.0,7.0,63,0.00,,,0.01,Wunderground v.1.15,2013-05-08 22:35:00,
2013-05-08 15:40:00,65.8,52.4,30.11,WSW,258,3.0,3.0,62,0.00,,,0.01,Wunderground v.1.15,2013-05-08 22:40:00,
2013-05-08 15:50:00,65.8,52.9,30.10,NE,39,3.0,3.0,63,0.00,,,0.01,Wunderground v.1.15,2013-05-08 22:50:00,
2013-05-08 15:55:00,65.9,52.5,30.10,West,266,3.0,7.0,62,0.00,,,0.01,Wunderground v.1.15,2013-05-08 22:55:00,
2013-05-08 16:00:00,65.8,52.4,30.10,NNE,33,2.0,7.0,62,0.00,,,0.01,Wunderground v.1.15,2013-05-08 23:00:00,
2013-05-08 16:10:00,65.3,51.5,30.10,North,4,4.0,4.0,61,0.00,,,0.01,Wunderground v.1.15,2013-05-08 23:10:00,
2013-05-08 16:15:00,65.1,51.8,30.11,WNW,284,4.0,7.0,62,0.00,,,0.01,Wunderground v.1.15,2013-05-08 23:15:00,
2013-05-08 16:20:00,65.4,52.0,30.10,NNE,33,3.0,3.0,62,0.00,,,0.01,Wunderground v.1.15,2013-05-08 23:20:00,
2013-05-08 16:25:00,65.1,52.2,30.10,NNE,21,3.0,6.0,63,0.00,,,0.01,Wunderground v.1.15,2013-05-08 23:25:00,
2013-05-08 16:35:00,64.7,51.8,30.11,West,268,3.0,7.0,63,0.00,,,0.01,Wunderground v.1.15,2013-05-08 23:35:00,
2013-05-08 16:40:00,64.4,51.5,30.11,NNE,33,2.0,7.0,63,0.00,,,0.01,Wunderground v.1.15,2013-05-08 23:40:00,
2013-05-08 16:45:00,64.2,52.2,30.11,NNE,24,3.0,7.0,65,0.00,,,0.01,Wunderground v.1.15,2013-05-08 23:45:00,
2013-05-08 16:50:00,64.1,51.7,30.11,NNE,18,2.0,7.0,64,0.00,,,0.01,Wunderground v.1.15,2013-05-08 23:50:00,
2013-05-08 17:00:00,63.2,51.2,30.11,NNE,14,3.0,3.0,65,0.00,,,0.01,Wunderground v.1.15,2013-05-09 00:00:00,
2013-05-08 17:05:00,63.1,51.1,30.11,East,91,3.0,7.0,65,0.00,,,0.01,Wunderground v.1.15,2013-05-09 00:05:00,
2013-05-08 17:15:00,63.2,51.2,30.11,ENE,63,2.0,7.0,65,0.00,,,0.01,Wunderground v.1.15,2013-05-09 00:15:00,
2013-05-08 17:20:00,63.2,51.6,30.12,WSW,247,2.0,7.0,66,0.00,,,0.01,Wunderground v.1.15,2013-05-09 00:20:00,
2013-05-08 17:25:00,63.1,51.1,30.11,NNE,30,3.0,7.0,65,0.00,,,0.01,Wunderground v.1.15,2013-05-09 00:25:00,
2013-05-08 17:30:00,62.5,50.6,30.12,NE,45,3.0,7.0,65,0.00,,,0.01,Wunderground v.1.15,2013-05-09 00:30:00,
2013-05-08 17:40:00,61.7,50.6,30.12,NNW,347,4.0,4.0,67,0.00,,,0.01,Wunderground v.1.15,2013-05-09 00:40:00,
2013-05-08 17:45:00,61.8,50.7,30.12,NW,308,3.0,7.0,67,0.00,,,0.01,Wunderground v.1.15,2013-05-09 00:45:00,
2013-05-08 17:50:00,62.0,50.9,30.12,NE,45,3.0,3.0,67,0.00,,,0.01,Wunderground v.1.15,2013-05-09 00:50:00,
2013-05-08 18:00:00,61.2,50.6,30.12,NE,45,3.0,3.0,68,0.00,,,0.01,Wunderground v.1.15,2013-05-09 01:00:00,
2013-05-08 18:05:00,61.0,50.8,30.12,NNE,18,3.0,7.0,69,0.00,,,0.01,Wunderground v.1.15,2013-05-09 01:05:00,
2013-05-08 18:10:00,60.8,50.2,30.12,East,87,3.0,8.0,68,0.00,,,0.01,Wunderground v.1.15,2013-05-09 01:10:00,
2013-05-08 18:20:00,60.0,50.2,30.12,NNW,340,4.0,4.0,70,0.00,,,0.01,Wunderground v.1.15,2013-05-09 01:20:00,
2013-05-08 18:25:00,59.8,50.4,30.13,NNE,21,3.0,7.0,71,0.00,,,0.01,Wunderground v.1.15,2013-05-09 01:25:00,
2013-05-08 18:30:00,59.2,49.8,30.13,NE,53,2.0,7.0,71,0.00,,,0.01,Wunderground v.1.15,2013-05-09 01:30:00,
2013-05-08 18:35:00,58.7,50.1,30.13,NE,51,2.0,7.0,73,0.00,,,0.01,Wunderground v.1.15,2013-05-09 01:35:00,
2013-05-08 18:45:00,57.8,49.6,30.13,West,272,3.0,7.0,74,0.00,,,0.01,Wunderground v.1.15,2013-05-09 01:45:00,
2013-05-08 18:50:00,57.6,49.7,30.14,NE,43,3.0,3.0,75,0.00,,,0.01,Wunderground v.1.15,2013-05-09 01:50:00,
2013-05-08 18:55:00,57.4,49.5,30.14,WNW,294,2.0,7.0,75,0.00,,,0.01,Wunderground v.1.15,2013-05-09 01:55:00,
2013-05-08 19:05:00,56.3,49.2,30.15,NNE,30,2.0,7.0,77,0.00,,,0.01,Wunderground v.1.15,2013-05-09 02:05:00,
2013-05-08 19:10:00,55.6,48.8,30.15,West,265,2.0,2.0,78,0.00,,,0.01,Wunderground v.1.15,2013-05-09 02:10:00,
2013-05-08 19:15:00,55.1,48.7,30.15,ESE,108,2.0,7.0,79,0.00,,,0.01,Wunderground v.1.15,2013-05-09 02:15:00,
2013-05-08 19:25:00,54.3,48.6,30.15,SW,236,2.0,3.0,81,0.00,,,0.01,Wunderground v.1.15,2013-05-09 02:25:00,
2013-05-08 19:30:00,53.9,48.5,30.15,NE,46,2.0,2.0,82,0.00,,,0.01,Wunderground v.1.15,2013-05-09 02:30:00,
2013-05-08 19:35:00,53.6,48.2,30.15,NNE,18,1.0,7.0,82,0.00,,,0.01,Wunderground v.1.15,2013-05-09 02:35:00,
2013-05-08 19:45:00,53.1,48.1,30.15,North,4,1.0,7.0,83,0.00,,,0.01,Wunderground v.1.15,2013-05-09 02:45:00,
2013-05-08 19:50:00,52.9,48.2,30.15,NNE,32,1.0,1.0,84,0.00,,,0.01,Wunderground v.1.15,2013-05-09 02:50:00,
2013-05-08 19:55:00,52.5,47.8,30.16,NNE,32,1.0,7.0,84,0.00,,,0.01,Wunderground v.1.15,2013-05-09 02:55:00,
2013-05-08 20:00:00,52.3,47.9,30.16,ENE,68,1.0,7.0,85,0.00,,,0.01,Wunderground v.1.15,2013-05-09 03:00:00,
2013-05-08 20:10:00,51.7,47.6,30.16,NNW,329,2.0,2.0,86,0.00,,,0.01,Wunderground v.1.15,2013-05-09 03:10:00,
2013-05-08 20:15:00,51.5,47.5,30.16,NE,35,1.0,7.0,86,0.00,,,0.01,Wunderground v.1.15,2013-05-09 03:15:00,
2013-05-08 20:20:00,51.2,47.5,30.16,NNE,20,1.0,1.0,87,0.00,,,0.01,Wunderground v.1.15,2013-05-09 03:20:00,
2013-05-08 20:30:00,50.8,47.4,30.17,NE,41,0.0,7.0,88,0.00,,,0.01,Wunderground v.1.15,2013-05-09 03:30:00,
2013-05-08 20:35:00,50.6,47.2,30.17,NNW,337,0.0,7.0,88,0.00,,,0.01,Wunderground v.1.15,2013-05-09 03:35:00,
2013-05-08 20:40:00,50.4,47.0,30.17,NW,324,0.0,7.0,88,0.00,,,0.01,Wunderground v.1.15,2013-05-09 03:40:00,
2013-05-08 20:50:00,50.1,47.0,30.17,NW,323,0.0,7.0,89,0.00,,,0.01,Wunderground v.1.15,2013-05-09 03:50:00,
2013-05-08 20:55:00,49.9,46.8,30.17,NW,323,0.0,7.0,89,0.00,,,0.01,Wunderground v.1.15,2013-05-09 03:55:00,
2013-05-08 21:00:00,49.7,46.6,30.17,NW,323,0.0,7.0,89,0.00,,,0.01,Wunderground v.1.15,2013-05-09 04:00:00,
2013-05-08 21:05:00,49.5,46.7,30.18,NW,323,0.0,7.0,90,0.00,,,0.01,Wunderground v.1.15,2013-05-09 04:05:00,
2013-05-08 21:10:00,49.3,46.5,30.17,NW,324,0.0,7.0,90,0.00,,,0.01,Wunderground v.1.15,2013-05-09 04:10:00,
2013-05-08 21:15:00,49.1,46.3,30.18,NW,324,0.0,7.0,90,0.00,,,0.01,Wunderground v.1.15,2013-05-09 04:15:00,
2013-05-08 21:20:00,49.0,46.2,30.18,NW,324,0.0,7.0,90,0.00,,,0.01,Wunderground v.1.15,2013-05-09 04:20:00,
2013-05-08 21:25:00,48.8,46.3,30.18,ENE,75,0.0,7.0,91,0.00,,,0.01,Wunderground v.1.15,2013-05-09 04:25:00,
2013-05-08 21:30:00,48.7,46.2,30.18,ENE,71,0.0,7.0,91,0.00,,,0.01,Wunderground v.1.15,2013-05-09 04:30:00,
2013-05-08 21:35:00,48.6,46.1,30.18,ENE,71,0.0,7.0,91,0.00,,,0.01,Wunderground v.1.15,2013-05-09 04:35:00,
2013-05-08 21:40:00,48.6,46.4,30.18,ENE,71,0.0,7.0,92,0.00,,,0.01,Wunderground v.1.15,2013-05-09 04:40:00,
2013-05-08 21:45:00,48.5,46.3,30.19,ENE,71,0.0,7.0,92,0.00,,,0.01,Wunderground v.1.15,2013-05-09 04:45:00,
2013-05-08 21:55:00,48.3,46.1,30.18,ENE,71,0.0,7.0,92,0.00,,,0.01,Wunderground v.1.15,2013-05-09 04:55:00,
2013-05-08 22:00:00,48.3,46.1,30.19,ENE,71,0.0,7.0,92,0.00,,,0.01,Wunderground v.1.15,2013-05-09 05:00:00,
2013-05-08 22:05:00,48.3,46.4,30.19,ENE,71,0.0,7.0,93,0.00,,,0.01,Wunderground v.1.15,2013-05-09 05:05:00,
2013-05-08 22:15:00,48.3,46.4,30.18,ENE,71,0.0,7.0,93,0.00,,,0.01,Wunderground v.1.15,2013-05-09 05:15:00,
2013-05-08 22:20:00,48.3,46.4,30.18,ENE,71,0.0,7.0,93,0.00,,,0.01,Wunderground v.1.15,2013-05-09 05:20:00,
2013-05-08 22:25:00,48.4,46.5,30.19,ENE,71,0.0,7.0,93,0.00,,,0.01,Wunderground v.1.15,2013-05-09 05:25:00,
2013-05-08 22:35:00,48.6,46.7,30.19,NE,50,0.0,7.0,93,0.00,,,0.01,Wunderground v.1.15,2013-05-09 05:35:00,
2013-05-08 22:40:00,48.7,46.8,30.18,ENE,64,0.0,7.0,93,0.00,,,0.01,Wunderground v.1.15,2013-05-09 05:40:00,
2013-05-08 22:45:00,48.8,46.9,30.19,ENE,64,0.0,7.0,93,0.00,,,0.01,Wunderground v.1.15,2013-05-09 05:45:00,
2013-05-08 22:55:00,48.9,46.7,30.18,ENE,65,0.0,7.0,92,0.00,,,0.01,Wunderground v.1.15,2013-05-09 05:55:00,
2013-05-08 23:00:00,49.0,46.8,30.18,NE,54,0.0,7.0,92,0.00,,,0.01,Wunderground v.1.15,2013-05-09 06:00:00,
2013-05-08 23:05:00,49.0,46.8,30.18,NE,55,1.0,7.0,92,0.00,,,0.01,Wunderground v.1.15,2013-05-09 06:05:00,
2013-05-08 23:10:00,49.0,46.8,30.18,NE,47,1.0,7.0,92,0.00,,,0.01,Wunderground v.1.15,2013-05-09 06:10:00,
2013-05-08 23:20:00,49.0,46.8,30.18,NE,47,0.0,7.0,92,0.00,,,0.01,Wunderground v.1.15,2013-05-09 06:20:00,
2013-05-08 23:25:00,49.0,46.8,30.18,NE,43,0.0,7.0,92,0.00,,,0.01,Wunderground v.1.15,2013-05-09 06:25:00,
2013-05-08 23:30:00,49.0,46.8,30.18,NE,43,0.0,7.0,92,0.00,,,0.01,Wunderground v.1.15,2013-05-09 06:30:00,
2013-05-08 23:40:00,49.0,47.1,30.18,NE,43,0.0,7.0,93,0.00,,,0.01,Wunderground v.1.15,2013-05-09 06:40:00,
2013-05-08 23:45:00,49.0,47.1,30.18,NE,43,0.0,7.0,93,0.00,,,0.01,Wunderground v.1.15,2013-05-09 06:45:00,